Flag for U.S.A. Weather past 2 weeks in Garden Grove, California, U.S.A.

Now
60 °F

Overcast.


Feels Like: 60 °F
Forecast: 56 / 68 °F
Wind: 3 mph from Northwest

Location: Fullerton Municipal Airport

Current Time: Apr 25, 2015 at 4:12:41 AM

Latest Report: Apr 25, 2015 at 4:01 AM


Visibility: 10 mi

Pressure: 29.97 "Hg

Humidity: 67%

Dew point: 49 °F

Location of Garden GroveLocation

Historic Weather in Garden Grove — Graph

°F

Garden Grove temperature yesterday

Maximum temperature yesterday: 66 °F (at 1:53 PM)
Minimum temperature yesterday: 58 °F (at 5:53 AM)
Average temperature yesterday: 62 °F

Past Weeks' High & Low Weather Summary

 TemperatureHumidityPressure
High85 °F (Apr 15, 2:53 PM)84% (Apr 12, 10:53 PM)30.09 "Hg (Apr 12, 10:53 PM)
Low53 °F (Apr 10, 6:53 AM)5% (Apr 16, 11:53 AM)29.82 "Hg (Apr 20, 5:53 PM)
Average65 °F53%29.94 "Hg
* Reported Apr 10 2:53 AM — Apr 25 2:53 AM, Garden Grove, Weather by CustomWeather, © 2015

Note: Actual official high and low records may vary slightly from our data, if they occured in-between our weather recording intervals... More about our weather records

Advertising

Garden Grove weather history for previous 24 hours

 ConditionsComfort  
Time TempWeatherWind HumidityBarometerVisibility
2:53 AM
Sat, Apr 25
60 °FMostly cloudy.3 mph75%29.97 "Hg10 mi
1:53 AM60 °FOvercast.3 mph72%29.98 "Hg10 mi
12:53 AM61 °FOvercast.No wind70%29.99 "Hg10 mi
11:53 PM
Fri, Apr 24
61 °FMostly cloudy.No wind70%29.99 "Hg10 mi
10:53 PM62 °FMostly cloudy.5 mph67%30.00 "Hg10 mi
9:53 PM62 °FMostly cloudy.No wind65%30.00 "Hg10 mi
8:53 PM62 °FOvercast.6 mph67%29.99 "Hg10 mi
7:53 PM63 °FOvercast.5 mph63%29.97 "Hg10 mi
6:53 PM63 °FOvercast.5 mph63%29.98 "Hg10 mi
5:53 PM63 °FOvercast.6 mph63%29.98 "Hg10 mi
3:53 PM66 °FOvercast.8 mph52%29.97 "Hg10 mi
2:53 PM66 °FMostly cloudy.No wind54%29.98 "Hg10 mi
1:53 PM66 °FOvercast.8 mph54%29.98 "Hg10 mi
12:53 PM64 °FCloudy.6 mph68%30.00 "Hg10 mi
11:53 AM60 °FMostly cloudy.6 mph80%30.01 "Hg10 mi
11:00 AM62 °FCloudy.3 mph67%30.01 "Hg10 mi
9:53 AM61 °FLight rain. Overcast.3 mph72%29.99 "Hg10 mi
8:53 AM62 °FOvercast.3 mph67%29.98 "Hg10 mi
7:53 AM61 °FOvercast.3 mph70%29.97 "Hg10 mi
6:53 AM58 °FPassing clouds.No wind78%29.95 "Hg10 mi
5:53 AM58 °FClear.No wind75%29.93 "Hg10 mi
4:53 AM60 °FPassing clouds.No wind69%29.91 "Hg10 mi
Weather by CustomWeather, © 2015

See weather overviewHow to use our weather pages